Location: Marengo
(51.4813°N, 109.7825°W)
Time: 01:02:55
(UTC+00:00)

Envisat - Pass Details

Date: 28 January 2022
Orbit: 764 x 765 km, 98.2° (Epoch: 22 May)

Event Time Altitude Azimuth Distance (km) Brightness Sun altitude
Rises 13:01:27 0° 10° (N) 3,244 6.3 -18.8°
Reaches altitude 10° 13:03:49 10° 6° (N) 2,314 5.5 -18.4°
Maximum altitude 13:08:43 49° 292° (WNW) 980 3.1 -17.7°
Drops below altitude 10° 13:13:35 10° 219° (SW) 2,299 5.2 -16.9°
Sets 13:15:56 0° 214° (SSW) 3,222 6.0 -16.6°
